Location: B�rgermoos
(47.6500°N, 9.0667°E)
Time: 00:18:52
(UTC+00:00)

Tiros 1 - Pass Details

Date: 06 August 2021
Orbit: 630 x 663 km, 48.4° (Epoch: 19 September)

Event Time Altitude Azimuth Distance (km) Brightness Sun altitude
Rises 21:55:35 0° 282° (WNW) 2,969 11.1 -22.5°
Reaches altitude 10° 21:58:36 10° 264° (W) 2,048 9.9 -22.8°
Enters shadow 22:00:47 17° 237° (WSW) 1,642 9.1 -22.9°
Maximum altitude 22:01:41 18° 222° (SW) 1,595 - -23.0°
Drops below altitude 10° 22:04:46 10° 181° (S) 2,025 - -23.2°
Sets 22:07:43 0° 162° (SSE) 2,923 - -23.3°
